Regional Weather Roundup
Issued by NWS

Home | Current Version | Previous Version | Graphics & Text | Print | Product List | Glossary On
Versions: 1 2 3 4 5 6 7 8 9 10 11 12 13 14 15 16 17 18 19 20 21 22 23 24 25 26 27 28 29 30 31 32 33 34 35 36 37 38 39 40 41 42 43 44 45 46 47 48 49 50
699
ASUS44 KLIX 260605
RWRLA
LOUISIANA WEATHER ROUNDUP
NATIONAL WEATHER SERVICE NEW ORLEANS LA
1200 AM CST MON JAN 26 2015

NOTE: "FAIR" INDICATES FEW OR NO CLOUDS BELOW 12,000 FEET WITH NO
      SIGNIFICANT WEATHER AND/OR OBSTRUCTIONS TO VISIBILITY.
      SKY/WX - SKY CONDITION AND SIGNIFICANT WEATHER.
      TMP - AIR TEMPERATURE.    DP   - DEWPOINT TEMPERATURE.
      RH  - RELATIVE HUMIDITY.  PRES - PRESSURE.
      HX  - HEAT INDEX.         WCI  - WIND CHILL INDEX.

*  THESE STATIONS ARE NOT NWS OR FAA STATIONS AND ARE NOT UNDER
   NWS QUALITY CONTROL.

LAZ040-048-061>063-065-066-069-260700-
SOUTHEAST LOUISIANA

CITY           SKY/WX    TMP DP  RH WIND       PRES   REMARKS
N.O. AUDUBON     N/A     54  43  64 MISG        N/A
6HR MIN TEMP:  52; 6HR MAX TEMP:  58;

N.O. INTL ARPT PTCLDY    51  41  68 W10       30.00R
6HR MIN TEMP:  51; 6HR MAX TEMP:  59;

N.O. LAKEFRONT CLEAR     56  45  66 W15       29.99R
6HR MIN TEMP:  56; 6HR MAX TEMP:  61;

N.O. DOWNTOWN* FAIR      55  37  50 W6        30.00S
SLIDELL        CLEAR     53  37  54 VRB3      29.97R
6HR MIN TEMP:  53; 6HR MAX TEMP:  60;

BATON ROUGE    CLEAR     55  31  39 NW12      30.01R
6HR MIN TEMP:  52; 6HR MAX TEMP:  60;

BOOTHVILLE     CLEAR     54  47  77 W13       30.00R
6HR MIN TEMP:  54; 6HR MAX TEMP:  61;

BELLE CHASSE   CLEAR     51  43  74 W3        29.99S
6HR MIN TEMP:  51; 6HR MAX TEMP:  59;

BOGALUSA*        N/A     46  37  71 W5        29.98R
6HR MIN TEMP:  44; 6HR MAX TEMP:  61;

GALLIANO*      CLEAR     52  46  80 MISG      30.02S
6HR MIN TEMP:  52; 6HR MAX TEMP:  60;

NEW ROADS*     FAIR      52  33  47 NW9G16    30.02S
6HR MIN TEMP:  52; 6HR MAX TEMP:  60;

GONZALES*      FAIR      56  32  41 NW5       30.00F
6HR MIN TEMP:  54; 6HR MAX TEMP:  60;

HAMMOND*       CLEAR     48  36  61 NW6       30.00R
HOUMA*         CLEAR     53  42  66 W7        30.02S
6HR MIN TEMP:  50; 6HR MAX TEMP:  57;

PORT FOURCHON* CLEAR     57  48  72 W14G22    30.06R

$$

LAZ041-044-053-054-260700-
SOUTHWEST LOUISIANA

CITY           SKY/WX    TMP DP  RH WIND       PRES   REMARKS
LAKE CHARLES   CLEAR     56  28  34 NW15      30.08R
6HR MIN TEMP:  56; 6HR MAX TEMP:  64;

LAFAYETTE      CLEAR     51  33  50 NW8       30.05R
6HR MIN TEMP:  50; 6HR MAX TEMP:  58;

PATTERSON      CLEAR     52  37  58 W7        30.04F
6HR MIN TEMP:  52; 6HR MAX TEMP:  55;

SALT POINT       N/A     53  45  74 NW6       30.04S
6HR MIN TEMP:  53; 6HR MAX TEMP:  56;

NEW IBERIA     CLEAR     50  37  61 NW10      30.05S
6HR MIN TEMP:  49; 6HR MAX TEMP:  58;

CHENAULT AIRPK CLEAR     55  29  36 NW13G21   30.09R
6HR MIN TEMP:  55; 6HR MAX TEMP:  64;


$$

LAZ027-028-260700-
CENTRAL LOUISIANA

CITY           SKY/WX    TMP DP  RH WIND       PRES   REMARKS
FORT POLK      CLEAR     50  30  45 NW9       30.08R
6HR MIN TEMP:  50; 6HR MAX TEMP:  62;

ALEXANDRIA INT CLEAR     51  31  46 NW10      30.06R
6HR MIN TEMP:  51; 6HR MAX TEMP:  62;

ALEXANDRIA     CLEAR     52  31  44 NW7       30.06R
6HR MIN TEMP:  52; 6HR MAX TEMP:  62;


$$

LAZ001-002-260700-
NORTHWEST LOUISIANA

CITY           SKY/WX    TMP DP  RH WIND       PRES   REMARKS
SHREVEPORT     CLEAR     47  31  53 NW9       30.10R
6HR MIN TEMP:  46; 6HR MAX TEMP:  59;

BARKSDALE AFB  CLEAR     47  32  54 NW13      30.10R
6HR MIN TEMP:  45; 6HR MAX TEMP:  58;

DTN SHREVEPORT CLEAR     49  31  49 NW12      30.10R
6HR MIN TEMP:  46; 6HR MAX TEMP:  59;


$$

LAZ014-016-260700-
NORTHEAST LOUISIANA

CITY           SKY/WX    TMP DP  RH WIND       PRES   REMARKS
MONROE         PTCLDY    49  34  56 NW10      30.05R
6HR MIN TEMP:  48; 6HR MAX TEMP:  59;

TALLULAH       MOCLDY    49  35  58 NW7       30.01R
6HR MIN TEMP:  49; 6HR MAX TEMP:  59;


$$




USA.gov is the U.S. government's official web portal to all federal, state and local government web resources and services.